| time (UTC) | temp F | wind direction | speed MPH | gust MPH | rain 1hr in | rain 24hr in | rain mn in | humidity % | barometer mb |
| 20260507132706 | 73 | 274 | 11.0 | 16.0 | 0.00 | 0.00 | 0.00 | 56 | 1012.1 |
| 20260507132202 | 72 | 57 | 6.0 | 17.0 | 0.00 | 0.00 | 0.00 | 56 | 1012.1 |
| 20260507131659 | 72 | 304 | 5.0 | 11.0 | 0.00 | 0.00 | 0.00 | 57 | 1012.2 |
| 20260507131157 | 72 | 274 | 10.0 | 18.0 | 0.00 | 0.00 | 0.00 | 56 | 1012.2 |
| 20260507130653 | 72 | 31 | 14.0 | 20.0 | 0.00 | 0.00 | 0.00 | 56 | 1012.2 |
| 20260507130151 | 73 | 317 | 15.0 | 18.0 | 0.00 | 0.00 | 0.00 | 55 | 1011.9 |
| 20260507125650 | 74 | 340 | 6.0 | 10.0 | 0.00 | 0.00 | 0.00 | 55 | 1012.0 |
| 20260507125148 | 73 | 325 | 8.0 | 16.0 | 0.00 | 0.00 | 0.00 | 55 | 1012.1 |
| 20260507124644 | 73 | 345 | 14.0 | 18.0 | 0.00 | 0.00 | 0.00 | 56 | 1012.0 |
| 20260507124142 | 74 | 51 | 5.0 | 13.0 | 0.00 | 0.00 | 0.00 | 55 | 1011.9 |
| 20260507123640 | 74 | 59 | 5.0 | 14.0 | 0.00 | 0.00 | 0.00 | 54 | 1012.0 |
| 20260507123137 | 73 | 359 | 12.0 | 14.0 | 0.00 | 0.00 | 0.00 | 55 | 1012.1 |
| 20260507122632 | 73 | 349 | 7.0 | 17.0 | 0.00 | 0.00 | 0.00 | 56 | 1011.9 |
| 20260507122128 | 72 | 337 | 14.0 | 17.0 | 0.00 | 0.00 | 0.00 | 56 | 1012.0 |
| 20260507121624 | 72 | 302 | 11.0 | 22.0 | 0.00 | 0.00 | 0.00 | 57 | 1012.1 |
| 20260507121120 | 72 | 318 | 15.0 | 18.0 | 0.00 | 0.00 | 0.00 | 56 | 1012.1 |
| 20260507120616 | 73 | 326 | 11.0 | 20.0 | 0.00 | 0.00 | 0.00 | 55 | 1012.3 |
| 20260507120112 | 74 | 356 | 6.0 | 14.0 | 0.00 | 0.00 | 0.00 | 54 | 1012.1 |
| 20260507115609 | 73 | 189 | 7.0 | 14.0 | 0.00 | 0.00 | 0.00 | 55 | 1012.0 |
| 20260507115104 | 73 | 302 | 11.0 | 16.0 | 0.00 | 0.00 | 0.00 | 56 | 1012.2 |
| 20260507114600 | 73 | 354 | 4.0 | 13.0 | 0.00 | 0.00 | 0.00 | 55 | 1012.3 |
| 20260507114058 | 73 | 247 | 15.0 | 18.0 | 0.00 | 0.00 | 0.00 | 56 | 1012.2 |
| 20260507113555 | 73 | 295 | 8.0 | 17.0 | 0.00 | 0.00 | 0.00 | 58 | 1012.4 |
| 20260507113052 | 73 | 354 | 8.0 | 17.0 | 0.00 | 0.00 | 0.00 | 57 | 1012.1 |
| 20260507112550 | 74 | 7 | 9.0 | 16.0 | 0.00 | 0.00 | 0.00 | 56 | 1012.2 |
| 20260507112046 | 73 | 273 | 7.0 | 14.0 | 0.00 | 0.00 | 0.00 | 57 | 1012.3 |
| 20260507111543 | 72 | 344 | 9.0 | 21.0 | 0.00 | 0.00 | 0.00 | 59 | 1012.4 |
| 20260507111040 | 73 | 303 | 7.0 | 17.0 | 0.00 | 0.00 | 0.00 | 58 | 1012.4 |
| 20260507110537 | 73 | 349 | 12.0 | 18.0 | 0.00 | 0.00 | 0.00 | 58 | 1012.4 |
| 20260507110033 | 73 | 323 | 11.0 | 17.0 | 0.00 | 0.00 | 0.00 | 59 | 1012.3 |
| 20260507105530 | 74 | 315 | 7.0 | 17.0 | 0.00 | 0.00 | 0.00 | 56 | 1012.3 |
| 20260507105026 | 73 | 277 | 8.0 | 17.0 | 0.00 | 0.00 | 0.00 | 58 | 1012.4 |
| 20260507104524 | 73 | 316 | 7.0 | 16.0 | 0.00 | 0.00 | 0.00 | 57 | 1012.5 |
| 20260507104020 | 73 | 271 | 11.0 | 18.0 | 0.00 | 0.00 | 0.00 | 58 | 1012.5 |
| 20260507103516 | 73 | 355 | 10.0 | 20.0 | 0.00 | 0.00 | 0.00 | 57 | 1012.4 |
| 20260507103013 | 73 | 349 | 10.0 | 14.0 | 0.00 | 0.00 | 0.00 | 57 | 1012.5 |
| 20260507102510 | 73 | 314 | 8.0 | 15.0 | 0.00 | 0.00 | 0.00 | 57 | 1012.5 |
| 20260507102007 | 73 | 359 | 10.0 | 17.0 | 0.00 | 0.00 | 0.00 | 56 | 1012.2 |
| 20260507101501 | 74 | 327 | 10.0 | 13.0 | 0.00 | 0.00 | 0.00 | 55 | 1012.6 |
| 20260507100958 | 73 | 234 | 8.0 | 14.0 | 0.00 | 0.00 | 0.00 | 56 | 1012.5 |
| 20260507100455 | 73 | 346 | 7.0 | 13.0 | 0.00 | 0.00 | 0.00 | 56 | 1012.5 |
| 20260507095953 | 75 | 351 | 11.0 | 16.0 | 0.00 | 0.00 | 0.00 | 53 | 1012.4 |
| 20260507095451 | 74 | 338 | 3.0 | 9.0 | 0.00 | 0.00 | 0.00 | 45 | 1012.7 |
| 20260507094947 | 74 | 353 | 6.0 | 14.0 | 0.00 | 0.00 | 0.00 | 44 | 1012.7 |
| 20260507094443 | 74 | 263 | 7.0 | 11.0 | 0.00 | 0.00 | 0.00 | 44 | 1012.7 |
| 20260507093941 | 73 | 279 | 5.0 | 15.0 | 0.00 | 0.00 | 0.00 | 46 | 1012.9 |
| 20260507093438 | 74 | 298 | 8.0 | 11.0 | 0.00 | 0.00 | 0.00 | 45 | 1012.8 |
| 20260507092937 | 73 | 277 | 9.0 | 10.0 | 0.00 | 0.00 | 0.00 | 47 | 1013.1 |
| 20260507092432 | 73 | 350 | 8.0 | 13.0 | 0.00 | 0.00 | 0.00 | 46 | 1013.0 |
| 20260507091929 | 73 | 17 | 4.0 | 14.0 | 0.00 | 0.00 | 0.00 | 48 | 1013.2 |
| 20260507091426 | 72 | 350 | 6.0 | 9.0 | 0.00 | 0.00 | 0.00 | 47 | 1013.3 |
| 20260507090916 | 73 | 286 | 8.0 | 11.0 | 0.00 | 0.00 | 0.00 | 47 | 1013.5 |
| 20260507090413 | 73 | 350 | 5.0 | 11.0 | 0.00 | 0.00 | 0.00 | 46 | 1013.5 |
| 20260507085910 | 73 | 60 | 2.0 | 10.0 | 0.00 | 0.00 | 0.00 | 46 | 1013.2 |
| 20260507085407 | 74 | 7 | 5.0 | 8.0 | 0.00 | 0.00 | 0.00 | 44 | 1013.4 |
| 20260507084904 | 74 | 5 | 2.0 | 3.0 | 0.00 | 0.00 | 0.00 | 42 | 1013.5 |
| 20260507084400 | 72 | 219 | 0.0 | 2.0 | 0.00 | 0.00 | 0.00 | 42 | 1013.6 |
| 20260507083858 | 73 | 343 | 4.0 | 11.0 | 0.00 | 0.00 | 0.00 | 43 | 1013.5 |
| 20260507083353 | 72 | 61 | 4.0 | 9.0 | 0.00 | 0.00 | 0.00 | 43 | 1013.5 |
| 20260507082850 | 72 | 37 | 4.0 | 6.0 | 0.00 | 0.00 | 0.00 | 44 | 1013.6 |
| 20260507082346 | 72 | 24 | 3.0 | 6.0 | 0.00 | 0.00 | 0.00 | 44 | 1013.7 |
| 20260507081843 | 71 | 333 | 7.0 | 10.0 | 0.00 | 0.00 | 0.00 | 45 | 1013.7 |
| 20260507081339 | 71 | 358 | 7.0 | 13.0 | 0.00 | 0.00 | 0.00 | 46 | 1013.8 |
| 20260507080836 | 71 | 20 | 0.0 | 3.0 | 0.00 | 0.00 | 0.00 | 48 | 1013.9 |
| 20260507080332 | 71 | 4 | 6.0 | 11.0 | 0.00 | 0.00 | 0.00 | 49 | 1014.0 |
| 20260507075827 | 70 | 53 | 0.0 | 3.0 | 0.00 | 0.00 | 0.00 | 47 | 1014.1 |
| 20260507075324 | 71 | 24 | 1.0 | 7.0 | 0.00 | 0.00 | 0.00 | 48 | 1014.0 |
| 20260507074820 | 69 | 350 | 3.0 | 6.0 | 0.00 | 0.00 | 0.00 | 47 | 1014.0 |
| 20260507074318 | 69 | 343 | 9.0 | 10.0 | 0.00 | 0.00 | 0.00 | 47 | 1013.9 |
| 20260507073815 | 70 | 27 | 4.0 | 9.0 | 0.00 | 0.00 | 0.00 | 46 | 1013.9 |
| 20260507073312 | 69 | 25 | 5.0 | 8.0 | 0.00 | 0.00 | 0.00 | 49 | 1013.7 |
| 20260507072809 | 68 | 30 | 0.0 | 2.0 | 0.00 | 0.00 | 0.00 | 50 | 1013.8 |
| 20260507072308 | 68 | 339 | 8.0 | 9.0 | 0.00 | 0.00 | 0.00 | 51 | 1014.0 |
| 20260507071804 | 67 | 309 | 5.0 | 8.0 | 0.00 | 0.00 | 0.00 | 52 | 1014.0 |
| 20260507071300 | 68 | 0 | 3.0 | 8.0 | 0.00 | 0.00 | 0.00 | 51 | 1014.0 |
| 20260507070757 | 68 | 354 | 4.0 | 5.0 | 0.00 | 0.00 | 0.00 | 50 | 1014.0 |
| 20260507070254 | 68 | 341 | 4.0 | 5.0 | 0.00 | 0.00 | 0.00 | 51 | 1014.1 |
| 20260507065751 | 67 | 41 | 3.0 | 7.0 | 0.00 | 0.00 | 0.00 | 53 | 1014.3 |
| 20260507065247 | 67 | 294 | 7.0 | 9.0 | 0.00 | 0.00 | 0.00 | 53 | 1014.1 |
| 20260507064745 | 66 | 350 | 7.0 | 8.0 | 0.00 | 0.00 | 0.00 | 55 | 1014.4 |
| 20260507064244 | 66 | 53 | 7.0 | 9.0 | 0.00 | 0.00 | 0.00 | 55 | 1014.5 |
| 20260507063741 | 65 | 357 | 2.0 | 5.0 | 0.00 | 0.00 | 0.00 | 57 | 1014.5 |
| 20260507063237 | 66 | 12 | 4.0 | 7.0 | 0.00 | 0.00 | 0.00 | 59 | 1014.2 |
| 20260507062734 | 65 | 325 | 4.0 | 6.0 | 0.00 | 0.00 | 0.00 | 61 | 1014.2 |
| 20260507062231 | 64 | 27 | 5.0 | 9.0 | 0.00 | 0.00 | 0.00 | 61 | 1014.4 |
| 20260507061730 | 65 | 26 | 1.0 | 7.0 | 0.00 | 0.00 | 0.00 | 62 | 1014.4 |
| 20260507061227 | 64 | 30 | 2.0 | 5.0 | 0.00 | 0.00 | 0.00 | 62 | 1014.3 |
| 20260507060725 | 64 | 18 | 5.0 | 8.0 | 0.00 | 0.00 | 0.00 | 64 | 1014.3 |
| 20260507060222 | 64 | 340 | 4.0 | 7.0 | 0.00 | 0.00 | 0.00 | 64 | 1014.2 |
| 20260507055718 | 64 | 46 | 3.0 | 7.0 | 0.00 | 0.00 | 0.00 | 64 | 1014.3 |
| 20260507055213 | 64 | 336 | 4.0 | 7.0 | 0.00 | 0.00 | 0.00 | 65 | 1014.3 |
| 20260507054709 | 64 | 337 | 3.0 | 6.0 | 0.00 | 0.00 | 0.00 | 65 | 1014.4 |
| 20260507054207 | 64 | 342 | 3.0 | 5.0 | 0.00 | 0.00 | 0.00 | 66 | 1014.1 |
| 20260507053704 | 63 | 57 | 5.0 | 8.0 | 0.00 | 0.00 | 0.00 | 66 | 1014.3 |
| 20260507053202 | 63 | 65 | 4.0 | 9.0 | 0.00 | 0.00 | 0.00 | 67 | 1014.4 |
| 20260507052701 | 63 | 43 | 5.0 | 11.0 | 0.00 | 0.00 | 0.00 | 67 | 1014.2 |
| 20260507052156 | 63 | 70 | 1.0 | 7.0 | 0.00 | 0.00 | 0.00 | 68 | 1014.1 |
| 20260507051654 | 62 | 58 | 6.0 | 8.0 | 0.00 | 0.00 | 0.00 | 68 | 1014.1 |
| 20260507051150 | 63 | 1 | 6.0 | 8.0 | 0.00 | 0.00 | 0.00 | 68 | 1014.4 |
| 20260507050647 | 63 | 23 | 3.0 | 7.0 | 0.00 | 0.00 | 0.00 | 68 | 1014.2 |
| 20260507050144 | 63 | 58 | 2.0 | 2.0 | 0.00 | 0.00 | 0.00 | 69 | 1014.4 |
| 20260507045640 | 62 | 65 | 0.0 | 3.0 | 0.00 | 0.00 | 0.00 | 71 | 1014.4 |
| 20260507045137 | 61 | 91 | 1.0 | 2.0 | 0.00 | 0.00 | 0.00 | 72 | 1014.3 |
| 20260507044635 | 60 | 33 | 1.0 | 2.0 | 0.00 | 0.00 | 0.00 | 74 | 1014.1 |
| 20260507044131 | 59 | 40 | 1.0 | 3.0 | 0.00 | 0.00 | 0.00 | 75 | 1014.3 |
| 20260507043627 | 59 | 40 | 0.0 | 1.0 | 0.00 | 0.00 | 0.00 | 77 | 1014.0 |
| 20260507043124 | 58 | 59 | 0.0 | 1.0 | 0.00 | 0.00 | 0.00 | 78 | 1014.3 |
| 20260507042621 | 57 | 66 | 1.0 | 1.0 | 0.00 | 0.00 | 0.00 | 79 | 1014.1 |
| 20260507042116 | 57 | 52 | 1.0 | 2.0 | 0.00 | 0.00 | 0.00 | 81 | 1014.3 |
| 20260507041613 | 56 | 63 | 1.0 | 2.0 | 0.00 | 0.00 | 0.00 | 82 | 1014.3 |
| 20260507041109 | 55 | 123 | 2.0 | 5.0 | 0.00 | 0.00 | 0.00 | 83 | 1014.1 |
| 20260507040606 | 55 | 34 | 2.0 | 2.0 | 0.00 | 0.00 | 0.00 | 83 | 1014.3 |
| 20260507035558 | 54 | 78 | 0.0 | 3.0 | 0.00 | 0.00 | 0.00 | 84 | 1013.9 |
| 20260507035055 | 54 | 78 | 0.0 | 3.0 | 0.00 | 0.00 | 0.00 | 84 | 1014.1 |
| 20260507034552 | 54 | 69 | 2.0 | 2.0 | 0.00 | 0.00 | 0.00 | 85 | 1013.9 |
| 20260507034050 | 53 | 31 | 0.0 | 0.0 | 0.00 | 0.00 | 0.00 | 85 | 1013.8 |
| 20260507033548 | 53 | 67 | 0.0 | 1.0 | 0.00 | 0.00 | 0.00 | 85 | 1014.0 |
| 20260507033044 | 53 | 72 | 0.0 | 1.0 | 0.00 | 0.00 | 0.00 | 85 | 1013.9 |
| 20260507032541 | 53 | 67 | 1.0 | 5.0 | 0.00 | 0.00 | 0.00 | 85 | 1013.8 |
| 20260507032037 | 53 | 140 | 1.0 | 2.0 | 0.00 | 0.00 | 0.00 | 85 | 1013.6 |
| 20260507031534 | 53 | 63 | 0.0 | 3.0 | 0.00 | 0.00 | 0.00 | 85 | 1013.7 |
| 20260507031031 | 53 | 73 | 0.0 | 2.0 | 0.00 | 0.00 | 0.00 | 85 | 1013.7 |
| 20260507030528 | 53 | 72 | 1.0 | 2.0 | 0.00 | 0.00 | 0.00 | 86 | 1013.5 |
| 20260507030026 | 52 | 74 | 1.0 | 1.0 | 0.00 | 0.00 | 0.00 | 86 | 1013.5 |
| 20260507025522 | 52 | 43 | 0.0 | 1.0 | 0.00 | 0.00 | 0.00 | 86 | 1013.6 |
| 20260507025020 | 52 | 80 | 0.0 | 2.0 | 0.00 | 0.00 | 0.00 | 86 | 1013.5 |
| 20260507024517 | 52 | 67 | 3.0 | 3.0 | 0.00 | 0.00 | 0.00 | 86 | 1013.3 |
| 20260507024014 | 52 | 42 | 0.0 | 0.0 | 0.00 | 0.00 | 0.00 | 85 | 1013.6 |
| 20260507023510 | 52 | 94 | 0.0 | 0.0 | 0.00 | 0.00 | 0.00 | 86 | 1013.3 |
| 20260507023008 | 52 | 73 | 0.0 | 1.0 | 0.00 | 0.00 | 0.00 | 85 | 1013.4 |
| 20260507022504 | 52 | 82 | 1.0 | 1.0 | 0.00 | 0.00 | 0.00 | 85 | 1013.3 |
| 20260507021959 | 52 | 96 | 1.0 | 1.0 | 0.00 | 0.00 | 0.00 | 85 | 1013.2 |
| 20260507021455 | 53 | 56 | 0.0 | 1.0 | 0.00 | 0.00 | 0.00 | 85 | 1013.3 |
| 20260507020953 | 53 | 59 | 0.0 | 1.0 | 0.00 | 0.00 | 0.00 | 85 | 1013.3 |
| 20260507020449 | 53 | 78 | 0.0 | 1.0 | 0.00 | 0.00 | 0.00 | 85 | 1013.2 |
| 20260507015946 | 53 | 68 | 0.0 | 1.0 | 0.00 | 0.00 | 0.00 | 85 | 1013.1 |
| 20260507015445 | 53 | 70 | 0.0 | 1.0 | 0.00 | 0.00 | 0.00 | 85 | 1012.9 |
| 20260507014942 | 53 | 52 | 0.0 | 0.0 | 0.00 | 0.00 | 0.00 | 85 | 1013.1 |
| 20260507014439 | 53 | 52 | 0.0 | 1.0 | 0.00 | 0.00 | 0.00 | 85 | 1013.1 |
| 20260507013935 | 53 | 86 | 0.0 | 0.0 | 0.00 | 0.00 | 0.00 | 85 | 1013.2 |
| 20260507013432 | 53 | 72 | 1.0 | 2.0 | 0.00 | 0.00 | 0.00 | 85 | 1013.3 |
| 20260507012929 | 53 | 74 | 1.0 | 2.0 | 0.00 | 0.00 | 0.00 | 85 | 1013.3 |
| 20260507012426 | 53 | 47 | 0.0 | 0.0 | 0.00 | 0.00 | 0.00 | 85 | 1013.2 |
| 20260507011922 | 53 | 66 | 0.0 | 1.0 | 0.00 | 0.00 | 0.00 | 85 | 1013.2 |
| 20260507011419 | 53 | 62 | 0.0 | 1.0 | 0.00 | 0.00 | 0.00 | 85 | 1013.3 |
| 20260507010913 | 53 | 28 | 0.0 | 0.0 | 0.00 | 0.00 | 0.00 | 85 | 1013.3 |
| 20260507010408 | 53 | 125 | 1.0 | 1.0 | 0.00 | 0.00 | 0.00 | 85 | 1013.1 |
| 20260507005906 | 53 | 345 | 1.0 | 1.0 | 0.00 | 0.00 | 0.00 | 85 | 1013.2 |
| 20260507005403 | 53 | 27 | 0.0 | 1.0 | 0.00 | 0.00 | 0.00 | 84 | 1013.5 |
| 20260507004859 | 53 | 359 | 0.0 | 1.0 | 0.00 | 0.00 | 0.00 | 84 | 1013.3 |
| 20260507004356 | 53 | 1 | 0.0 | 2.0 | 0.00 | 0.00 | 0.00 | 84 | 1013.3 |
| 20260507003853 | 53 | 3 | 1.0 | 2.0 | 0.00 | 0.00 | 0.00 | 84 | 1013.2 |
| 20260507003349 | 53 | 6 | 0.0 | 1.0 | 0.00 | 0.00 | 0.00 | 84 | 1013.6 |
| 20260507002844 | 53 | 67 | 0.0 | 1.0 | 0.00 | 0.00 | 0.00 | 84 | 1013.2 |
| 20260507002340 | 53 | 359 | 1.0 | 2.0 | 0.00 | 0.00 | 0.00 | 84 | 1013.2 |
| 20260507001838 | 53 | 13 | 0.0 | 1.0 | 0.00 | 0.00 | 0.00 | 84 | 1013.2 |
| 20260507001334 | 53 | 69 | 0.0 | 3.0 | 0.00 | 0.00 | 0.00 | 84 | 1013.5 |
| 20260507000831 | 53 | 26 | 0.0 | 1.0 | 0.00 | 0.00 | 0.00 | 84 | 1013.4 |
| 20260507000328 | 53 | 86 | 2.0 | 2.0 | 0.00 | 0.00 | 0.00 | 84 | 1013.3 |
| 20260506235823 | 53 | 59 | 0.0 | 0.0 | 0.00 | 0.00 | 0.00 | 83 | 1013.3 |
| 20260506235320 | 53 | 143 | 0.0 | 1.0 | 0.00 | 0.00 | 0.00 | 84 | 1013.3 |
| 20260506234816 | 53 | 18 | 1.0 | 1.0 | 0.00 | 0.00 | 0.00 | 83 | 1013.6 |
| 20260506234314 | 53 | 38 | 1.0 | 2.0 | 0.00 | 0.00 | 0.00 | 84 | 1013.6 |
| 20260506233811 | 53 | 52 | 0.0 | 1.0 | 0.00 | 0.00 | 0.00 | 84 | 1013.7 |
| 20260506233307 | 53 | 52 | 1.0 | 1.0 | 0.00 | 0.00 | 0.00 | 84 | 1013.4 |
| 20260506232804 | 53 | 333 | 1.0 | 1.0 | 0.00 | 0.00 | 0.00 | 84 | 1013.5 |
| 20260506232259 | 53 | 37 | 0.0 | 0.0 | 0.00 | 0.00 | 0.00 | 83 | 1013.6 |
| 20260506231751 | 53 | 58 | 0.0 | 0.0 | 0.00 | 0.00 | 0.00 | 84 | 1013.4 |
| 20260506231250 | 53 | 0 | 0.0 | 1.0 | 0.00 | 0.00 | 0.00 | 83 | 1013.6 |
| 20260506230746 | 53 | 1 | 0.0 | 1.0 | 0.00 | 0.00 | 0.00 | 83 | 1013.5 |
| 20260506230243 | 53 | 326 | 1.0 | 1.0 | 0.00 | 0.00 | 0.00 | 83 | 1013.6 |
| 20260506225740 | 53 | 42 | 0.0 | 1.0 | 0.00 | 0.00 | 0.00 | 83 | 1013.4 |
| 20260506225237 | 53 | 87 | 0.0 | 1.0 | 0.00 | 0.00 | 0.00 | 83 | 1013.3 |
| 20260506224733 | 53 | 324 | 0.0 | 2.0 | 0.00 | 0.00 | 0.00 | 83 | 1013.4 |
| 20260506224231 | 53 | 14 | 1.0 | 1.0 | 0.00 | 0.00 | 0.00 | 83 | 1013.7 |
| 20260506223727 | 54 | 1 | 0.0 | 0.0 | 0.00 | 0.00 | 0.00 | 83 | 1013.7 |
| 20260506223222 | 54 | 353 | 0.0 | 1.0 | 0.00 | 0.00 | 0.00 | 83 | 1013.6 |
| 20260506222719 | 54 | 2 | 0.0 | 1.0 | 0.00 | 0.00 | 0.00 | 83 | 1013.6 |
| 20260506222214 | 54 | 358 | 0.0 | 1.0 | 0.00 | 0.00 | 0.00 | 83 | 1013.7 |
| 20260506221712 | 54 | 11 | 0.0 | 0.0 | 0.00 | 0.00 | 0.00 | 83 | 1013.6 |
| 20260506221210 | 54 | 337 | 1.0 | 1.0 | 0.00 | 0.00 | 0.00 | 82 | 1013.7 |
| 20260506220707 | 54 | 7 | 1.0 | 2.0 | 0.00 | 0.00 | 0.00 | 82 | 1013.7 |
| 20260506220202 | 54 | 35 | 0.0 | 1.0 | 0.00 | 0.00 | 0.00 | 82 | 1013.9 |
| 20260506215659 | 54 | 69 | 0.0 | 0.0 | 0.00 | 0.00 | 0.00 | 82 | 1013.9 |
| 20260506215154 | 54 | 96 | 0.0 | 1.0 | 0.00 | 0.00 | 0.00 | 82 | 1014.0 |
| 20260506214646 | 54 | 29 | 0.0 | 1.0 | 0.00 | 0.00 | 0.00 | 82 | 1014.0 |
| 20260506214143 | 55 | 21 | 0.0 | 1.0 | 0.00 | 0.00 | 0.00 | 81 | 1013.9 |
| 20260506213642 | 55 | 12 | 0.0 | 1.0 | 0.00 | 0.00 | 0.00 | 81 | 1014.0 |
| 20260506213138 | 55 | 348 | 0.0 | 1.0 | 0.00 | 0.00 | 0.00 | 81 | 1014.1 |
| 20260506212635 | 55 | 48 | 0.0 | 2.0 | 0.00 | 0.00 | 0.00 | 81 | 1014.1 |
| 20260506212130 | 55 | 91 | 2.0 | 2.0 | 0.00 | 0.00 | 0.00 | 81 | 1014.0 |
| 20260506211626 | 55 | 41 | 0.0 | 0.0 | 0.00 | 0.00 | 0.00 | 81 | 1014.0 |
| 20260506211123 | 55 | 28 | 0.0 | 1.0 | 0.00 | 0.00 | 0.00 | 80 | 1014.0 |
| 20260506210620 | 55 | 101 | 0.0 | 2.0 | 0.00 | 0.00 | 0.00 | 80 | 1013.9 |
| 20260506210116 | 56 | 86 | 2.0 | 2.0 | 0.00 | 0.00 | 0.00 | 80 | 1014.0 |
| 20260506205613 | 56 | 38 | 0.0 | 1.0 | 0.00 | 0.00 | 0.00 | 80 | 1013.9 |
| 20260506205108 | 56 | 51 | 1.0 | 2.0 | 0.00 | 0.00 | 0.00 | 80 | 1014.1 |
| 20260506204607 | 56 | 67 | 0.0 | 0.0 | 0.00 | 0.00 | 0.00 | 80 | 1014.1 |
| 20260506204103 | 56 | 80 | 0.0 | 1.0 | 0.00 | 0.00 | 0.00 | 80 | 1014.2 |
| 20260506203601 | 56 | 61 | 0.0 | 1.0 | 0.00 | 0.00 | 0.00 | 79 | 1014.0 |
| 20260506203057 | 56 | 62 | 1.0 | 1.0 | 0.00 | 0.00 | 0.00 | 79 | 1014.1 |
| 20260506202555 | 56 | 69 | 0.0 | 2.0 | 0.00 | 0.00 | 0.00 | 79 | 1014.2 |
| 20260506202051 | 56 | 69 | 0.0 | 2.0 | 0.00 | 0.00 | 0.00 | 79 | 1014.1 |
| 20260506201549 | 56 | 93 | 0.0 | 0.0 | 0.00 | 0.00 | 0.00 | 79 | 1014.3 |
| 20260506201045 | 57 | 94 | 0.0 | 0.0 | 0.00 | 0.00 | 0.00 | 79 | 1014.2 |
| 20260506200541 | 57 | 93 | 0.0 | 1.0 | 0.00 | 0.00 | 0.00 | 78 | 1014.3 |
| 20260506200038 | 57 | 69 | 0.0 | 1.0 | 0.00 | 0.00 | 0.00 | 78 | 1014.2 |
| 20260506195535 | 57 | 41 | 0.0 | 1.0 | 0.00 | 0.00 | 0.00 | 78 | 1014.5 |
| 20260506195031 | 57 | 347 | 1.0 | 1.0 | 0.00 | 0.00 | 0.00 | 78 | 1014.4 |
| 20260506194529 | 57 | 22 | 1.0 | 1.0 | 0.00 | 0.00 | 0.00 | 77 | 1014.3 |
| 20260506194026 | 57 | 56 | 0.0 | 0.0 | 0.00 | 0.00 | 0.00 | 77 | 1014.3 |
| 20260506193523 | 58 | 59 | 1.0 | 1.0 | 0.00 | 0.00 | 0.00 | 77 | 1014.3 |
| 20260506193020 | 57 | 67 | 0.0 | 0.0 | 0.00 | 0.00 | 0.00 | 77 | 1014.2 |
| 20260506192517 | 58 | 99 | 0.0 | 1.0 | 0.00 | 0.00 | 0.00 | 76 | 1014.4 |
| 20260506192013 | 58 | 68 | 0.0 | 1.0 | 0.00 | 0.00 | 0.00 | 76 | 1014.2 |
| 20260506191510 | 58 | 80 | 0.0 | 3.0 | 0.00 | 0.00 | 0.00 | 76 | 1014.3 |
| 20260506191006 | 58 | 92 | 0.0 | 2.0 | 0.00 | 0.00 | 0.00 | 75 | 1014.2 |
| 20260506190503 | 59 | 50 | 0.0 | 1.0 | 0.00 | 0.00 | 0.00 | 75 | 1014.1 |
| 20260506185959 | 59 | 79 | 0.0 | 0.0 | 0.00 | 0.00 | 0.00 | 74 | 1014.0 |
| 20260506185457 | 59 | 84 | 1.0 | 1.0 | 0.00 | 0.00 | 0.00 | 74 | 1014.2 |
| 20260506184953 | 59 | 84 | 1.0 | 2.0 | 0.00 | 0.00 | 0.00 | 74 | 1014.2 |
| 20260506184451 | 59 | 93 | 0.0 | 2.0 | 0.00 | 0.00 | 0.00 | 74 | 1014.2 |
| 20260506183948 | 59 | 112 | 0.0 | 0.0 | 0.00 | 0.00 | 0.00 | 74 | 1014.0 |
| 20260506183444 | 60 | 112 | 0.0 | 0.0 | 0.00 | 0.00 | 0.00 | 74 | 1013.9 |
| 20260506182941 | 60 | 112 | 0.0 | 1.0 | 0.00 | 0.00 | 0.00 | 73 | 1013.9 |
| 20260506182438 | 60 | 112 | 0.0 | 0.0 | 0.00 | 0.00 | 0.00 | 73 | 1014.1 |
| 20260506181936 | 60 | 112 | 0.0 | 1.0 | 0.00 | 0.00 | 0.00 | 73 | 1014.1 |
| 20260506181433 | 60 | 141 | 1.0 | 1.0 | 0.00 | 0.00 | 0.00 | 73 | 1014.1 |
| 20260506180930 | 60 | 171 | 1.0 | 2.0 | 0.00 | 0.00 | 0.00 | 73 | 1014.1 |
| 20260506180426 | 60 | 44 | 0.0 | 0.0 | 0.00 | 0.00 | 0.00 | 73 | 1013.7 |
| 20260506175923 | 60 | 44 | 0.0 | 0.0 | 0.00 | 0.00 | 0.00 | 72 | 1013.8 |
| 20260506175419 | 60 | 38 | 0.0 | 1.0 | 0.00 | 0.00 | 0.00 | 72 | 1013.6 |
| 20260506174916 | 60 | 81 | 0.0 | 1.0 | 0.00 | 0.00 | 0.00 | 72 | 1013.5 |
| 20260506174414 | 60 | 216 | 0.0 | 0.0 | 0.00 | 0.00 | 0.00 | 72 | 1013.7 |
| 20260506173911 | 61 | 217 | 1.0 | 1.0 | 0.00 | 0.00 | 0.00 | 72 | 1013.5 |
| 20260506173408 | 61 | 18 | 0.0 | 1.0 | 0.00 | 0.00 | 0.00 | 71 | 1013.4 |
| 20260506172906 | 61 | 20 | 0.0 | 1.0 | 0.00 | 0.00 | 0.00 | 71 | 1013.5 |
| 20260506172402 | 61 | 26 | 1.0 | 1.0 | 0.00 | 0.00 | 0.00 | 70 | 1013.4 |
| 20260506171859 | 61 | 23 | 1.0 | 2.0 | 0.00 | 0.00 | 0.00 | 70 | 1013.3 |
| 20260506171356 | 62 | 44 | 0.0 | 1.0 | 0.00 | 0.00 | 0.00 | 70 | 1013.3 |
| 20260506170853 | 62 | 17 | 0.0 | 1.0 | 0.00 | 0.00 | 0.00 | 70 | 1013.3 |
| 20260506170349 | 62 | 319 | 3.0 | 5.0 | 0.00 | 0.00 | 0.00 | 69 | 1013.1 |
| 20260506165843 | 62 | 351 | 3.0 | 5.0 | 0.00 | 0.00 | 0.00 | 69 | 1013.1 |
| 20260506165341 | 62 | 4 | 2.0 | 5.0 | 0.00 | 0.00 | 0.00 | 69 | 1013.1 |
| 20260506164836 | 62 | 336 | 2.0 | 5.0 | 0.00 | 0.00 | 0.00 | 69 | 1013.1 |
| 20260506164333 | 62 | 339 | 2.0 | 5.0 | 0.00 | 0.00 | 0.00 | 68 | 1012.9 |
| 20260506163831 | 63 | 347 | 5.0 | 7.0 | 0.00 | 0.00 | 0.00 | 68 | 1013.2 |
| 20260506163325 | 63 | 348 | 3.0 | 6.0 | 0.00 | 0.00 | 0.00 | 67 | 1013.0 |
| 20260506162821 | 63 | 347 | 5.0 | 8.0 | 0.00 | 0.00 | 0.00 | 67 | 1012.8 |
| 20260506162319 | 63 | 349 | 5.0 | 8.0 | 0.00 | 0.00 | 0.00 | 66 | 1012.8 |
| 20260506161817 | 64 | 329 | 6.0 | 8.0 | 0.00 | 0.00 | 0.00 | 66 | 1013.1 |
| 20260506161314 | 64 | 350 | 7.0 | 8.0 | 0.00 | 0.00 | 0.00 | 65 | 1013.0 |
| 20260506160811 | 64 | 265 | 4.0 | 9.0 | 0.00 | 0.00 | 0.00 | 65 | 1012.9 |
| 20260506160307 | 64 | 326 | 7.0 | 11.0 | 0.00 | 0.00 | 0.00 | 64 | 1012.6 |
| 20260506155806 | 64 | 337 | 8.0 | 9.0 | 0.00 | 0.00 | 0.00 | 63 | 1012.6 |
| 20260506155305 | 65 | 358 | 4.0 | 10.0 | 0.00 | 0.00 | 0.00 | 63 | 1012.5 |
| 20260506153410 | 65 | 297 | 5.0 | 9.0 | 0.00 | 0.00 | 0.00 | 63 | 1012.3 |
| 20260506152907 | 66 | 337 | 7.0 | 9.0 | 0.00 | 0.00 | 0.00 | 62 | 1012.5 |
| 20260506152404 | 66 | 350 | 4.0 | 8.0 | 0.00 | 0.00 | 0.00 | 60 | 1012.3 |
| 20260506151903 | 67 | 291 | 7.0 | 10.0 | 0.00 | 0.00 | 0.00 | 59 | 1012.5 |
| 20260506151359 | 67 | 41 | 6.0 | 11.0 | 0.00 | 0.00 | 0.00 | 59 | 1012.2 |
| 20260506150857 | 67 | 272 | 7.0 | 10.0 | 0.00 | 0.00 | 0.00 | 58 | 1012.4 |
| 20260506150353 | 67 | 351 | 7.0 | 10.0 | 0.00 | 0.00 | 0.00 | 58 | 1012.3 |
| 20260506145850 | 67 | 287 | 7.0 | 9.0 | 0.00 | 0.00 | 0.00 | 56 | 1012.2 |
| 20260506145346 | 67 | 351 | 5.0 | 9.0 | 0.00 | 0.00 | 0.00 | 56 | 1012.4 |
| 20260506144844 | 67 | 260 | 8.0 | 9.0 | 0.00 | 0.00 | 0.00 | 55 | 1012.3 |
| 20260506144340 | 68 | 288 | 5.0 | 8.0 | 0.00 | 0.00 | 0.00 | 54 | 1012.5 |
| 20260506143839 | 68 | 358 | 3.0 | 8.0 | 0.00 | 0.00 | 0.00 | 54 | 1012.3 |
| 20260506143335 | 68 | 336 | 2.0 | 2.0 | 0.00 | 0.00 | 0.00 | 54 | 1012.2 |
| 20260506142834 | 68 | 352 | 7.0 | 9.0 | 0.00 | 0.00 | 0.00 | 53 | 1012.3 |
| 20260506142331 | 68 | 280 | 5.0 | 9.0 | 0.00 | 0.00 | 0.00 | 53 | 1012.3 |
| 20260506141829 | 68 | 359 | 4.0 | 9.0 | 0.00 | 0.00 | 0.00 | 54 | 1012.3 |
| 20260506141327 | 68 | 336 | 8.0 | 10.0 | 0.00 | 0.00 | 0.00 | 54 | 1012.3 |
| 20260506140825 | 68 | 1 | 5.0 | 8.0 | 0.00 | 0.00 | 0.00 | 55 | 1012.4 |
| 20260506140321 | 68 | 332 | 6.0 | 9.0 | 0.00 | 0.00 | 0.00 | 55 | 1012.3 |
| 20260506135818 | 67 | 289 | 6.0 | 11.0 | 0.00 | 0.00 | 0.00 | 56 | 1012.3 |
| 20260506135315 | 68 | 348 | 9.0 | 10.0 | 0.00 | 0.00 | 0.00 | 56 | 1012.5 |
| 20260506134811 | 69 | 2 | 6.0 | 8.0 | 0.00 | 0.00 | 0.00 | 54 | 1012.3 |
| 20260506134308 | 68 | 359 | 1.0 | 8.0 | 0.00 | 0.00 | 0.00 | 56 | 1012.6 |
| 20260506133805 | 68 | 319 | 8.0 | 13.0 | 0.00 | 0.00 | 0.00 | 57 | 1012.7 |
| 20260506133302 | 68 | 320 | 9.0 | 13.0 | 0.00 | 0.00 | 0.00 | 57 | 1012.5 |